Weather Roundup
Issued by NWS

Home | Current Version | Previous Version | Text Only | Print | Product List | Glossary On
Versions: 1 2 3 4 5 6 7 8 9 10 11 12 13 14 15 16 17 18 19 20 21 22 23 24 25 26 27 28 29 30 31 32 33 34 35 36 37 38 39 40 41 42 43 44 45 46 47 48 49 50
000
NZUS93 KARX 211810
HRRWXR

CURRENT HOURLY OBSERVATIONS ACROSS
MUCH OF THE UPPER MISSISSIPPI VALLEY
NATIONAL WEATHER SERVICE LA CROSSE WI
100 PM CDT MON AUG 21 2017


...SOUTHEAST MINNESOTA...


CITY           SKY/WX    TMP DP  RH WIND       PRES   REMARKS
ROCHESTER      SUNNY     76  67  73 SE8       29.98F
ROCHESTER/MAYO FAIR      80  63  56 SE3       29.97F
WINONA         CLOUDY    77  64  65 CALM      29.97F
AUSTIN         CLOUDY    75  63  64 CALM      29.98S
ALBERT LEA     CLOUDY    77  63  61 CALM      29.99S
DODGE CENTER   SUNNY     77  64  65 CALM      29.99S
PRESTON        CLOUDY    75  63  64 SE8       29.99F
OWATONNA       MOSUNNY   77  66  69 S3        29.99R
FARIBAULT      MOSUNNY   75  66  73 CALM      29.99R
$$

...ELSEWHERE IN MINNESOTA...


CITY           SKY/WX    TMP DP  RH WIND       PRES   REMARKS
MINNEAPOLIS    PTSUNNY   78  62  57 W7        29.98R
INTNL FALLS    CLOUDY    67  54  63 SE3       29.97F
DULUTH         CLOUDY    65  58  78 N3        30.00F
RED WING       SUNNY     75  64  69 SE5       29.96F
REDWOOD FALLS  LGT RAIN  65  63  93 SE8       29.95F FOG
MANKATO        CLOUDY    74  66  76 SW5       29.97F
WORTHINGTON    TSTM      66  64  94 S5        29.99F FOG
FAIRMONT       LGT RAIN  73  67  81 W13       30.02R
$$

...SOUTHWEST WISCONSIN...


CITY           SKY/WX    TMP DP  RH WIND       PRES   REMARKS
LA CROSSE      PTSUNNY   81  65  58 S10       29.97R
PRAIRIE DU CHI CLOUDY    76  63  64 S5        30.00F
BOSCOBEL       CLOUDY    79  67  66 S6        30.01F
LONE ROCK      CLOUDY    77  72  84 SE5       30.00F
PLATTEVILLE    CLOUDY    75  69  82 S10       30.04F
FORT MC COY    MOSUNNY   78  64  62 S7        29.98S
CAMP DOUGLAS   MOSUNNY   79  70  73 S8        29.98F
MAUSTON-NEW LI CLOUDY    78  69  75 SE7       29.99F
VIROQUA        FAIR      74  65  72 CALM      30.02S
WIS DELLS      CLOUDY    77  67  71 S9        30.02S
$$

...ELSEWHERE IN WISCONSIN...


CITY           SKY/WX    TMP DP  RH WIND       PRES   REMARKS
MILWAUKEE      CLOUDY    82  70  66 NE5       30.03F
MADISON        CLOUDY    76  69  79 SE7       30.02F
GREEN BAY      SUNNY     78  71  79 S6        30.01F
EAU CLAIRE     SUNNY     75  68  78 SW5       29.98F
BLACK RVR FLS  FAIR      82  65  57 SW5       29.97R
MEDFORD        SUNNY     72  66  81 CALM      30.00F
WAUSAU         CLOUDY    76  67  73 SE7       29.97F
WIS RAPIDS     CLOUDY    80  68  66 S8        29.98F
MARSHFIELD     CLOUDY    78  68  71 SE7       29.97F
RICE LAKE      MOSUNNY   74  64  70 SW5       30.00F
$$

...NORTHEAST IOWA...


CITY           SKY/WX    TMP DP  RH WIND       PRES   REMARKS
WATERLOO       CLOUDY    74  63  68 SE12      29.96F
DUBUQUE        PTSUNNY   72  67  84 S15       30.05F
DECORAH        CLOUDY    73  66  78 S8        30.00F
MASON CITY     CLOUDY    69  64  84 CALM      30.01F
CHARLES CITY   CLOUDY    72  68  88 SE7       29.99F
OELWEIN        CLOUDY    75  66  73 SE13      29.99F
$$

...ELSEWHERE IN IOWA...


CITY           SKY/WX    TMP DP  RH WIND       PRES   REMARKS
DES MOINES     CLOUDY    73  67  81 S8        29.98F
IOWA CITY      CLOUDY    74  68  81 SE10      30.01F
FORT DODGE     PTSUNNY   70  63  78 S3        29.96F
MARSHALLTOWN   CLOUDY    74  68  81 N5        29.96F
CEDAR RAPIDS   CLOUDY    71  67  87 SE9       30.00F
$$

...NORTHERN ILLINOIS...


CITY           SKY/WX    TMP DP  RH WIND       PRES   REMARKS
CHICAGO-OHARE  CLOUDY    81  71  71 SW8       30.06S
CHICAGO-MIDWAY CLOUDY    80  72  76 SW12      30.07S
MOLINE         CLOUDY    77  67  71 SW5       30.02F
ROCKFORD       CLOUDY    75  70  84 SE9       30.04F
PEORIA         CLOUDY    73  72  96 S9        30.04F
$$

NOTE: "FAIR" INDICATES FEW OR NO CLOUDS BELOW 12,000 FEET WITH NO
SIGNIFICANT WEATHER AND/OR OBSTRUCTIONS TO VISIBILITY. WIND
SPEEDS ARE IN MILES-PER-HOUR.




USA.gov is the U.S. government's official web portal to all federal, state and local government web resources and services.